�������l�o���
Date,Time,MP-1(��Sv/h),MP-2(��Sv/h),MP-3(��Sv/h),MP-4(��Sv/h),MP-5(��Sv/h),MP-6(��Sv/h),MP-7(��Sv/h),MP-8(��Sv/h),����,����(m/s),���J
2021/11/08,00:00,0.591,0.894,0.565,1.097,0.771,0.357,0.624,0.587,�k��,2.5,��
2021/11/08,00:10,0.594,0.894,0.564,1.098,0.771,0.358,0.626,0.586,�k�k��,3.0,��
2021/11/08,00:20,0.593,0.894,0.564,1.095,0.769,0.358,0.625,0.586,�k��,3.1,��
2021/11/08,00:30,0.593,0.896,0.564,1.097,0.769,0.358,0.625,0.586,�k�k��,3.5,��
2021/11/08,00:40,0.594,0.894,0.564,1.096,0.769,0.358,0.624,0.587,�k��,3.4,��
2021/11/08,00:50,0.595,0.895,0.564,1.097,0.773,0.358,0.623,0.586,�k��,4.2,��
2021/11/08,01:00,0.594,0.895,0.563,1.098,0.772,0.358,0.624,0.586,�k��,4.6,��
2021/11/08,01:10,0.594,0.896,0.565,1.097,0.771,0.358,0.625,0.586,�k��,4.2,��
2021/11/08,01:20,0.593,0.895,0.564,1.098,0.770,0.358,0.624,0.587,�k��,4.0,�L
2021/11/08,01:30,0.593,0.896,0.565,1.096,0.769,0.358,0.625,0.588,�k��,4.0,�L
2021/11/08,01:40,0.592,0.895,0.564,1.098,0.771,0.359,0.624,0.586,�k��,4.4,��
2021/11/08,01:50,0.595,0.893,0.564,1.097,0.770,0.358,0.625,0.588,�k��,4.2,��
2021/11/08,02:00,0.594,0.894,0.565,1.096,0.770,0.358,0.624,0.586,�k��,4.3,��
2021/11/08,02:10,0.592,0.893,0.564,1.098,0.770,0.359,0.624,0.586,�k��,3.2,��
2021/11/08,02:20,0.593,0.893,0.564,1.098,0.772,0.358,0.623,0.586,�k��,3.8,��
2021/11/08,02:30,0.594,0.893,0.564,1.095,0.772,0.357,0.625,0.587,�k��,3.7,��
2021/11/08,02:40,0.595,0.894,0.563,1.097,0.771,0.358,0.626,0.587,�k��,3.8,��
2021/11/08,02:50,0.595,0.893,0.565,1.097,0.769,0.360,0.623,0.587,�k��,3.6,��
2021/11/08,03:00,0.593,0.894,0.566,1.096,0.770,0.358,0.625,0.588,�k��,4.4,��
2021/11/08,03:10,0.594,0.894,0.564,1.098,0.770,0.359,0.624,0.586,�k�k��,3.7,��
2021/11/08,03:20,0.592,0.894,0.564,1.098,0.770,0.358,0.624,0.587,�k�k��,3.6,��
2021/11/08,03:30,0.595,0.894,0.565,1.096,0.769,0.359,0.623,0.585,�k�k��,3.9,��
2021/11/08,03:40,0.593,0.894,0.565,1.098,0.770,0.358,0.624,0.586,�k�k��,3.6,��
2021/11/08,03:50,0.594,0.894,0.564,1.099,0.768,0.358,0.626,0.587,�k�k��,5.1,��
2021/11/08,04:00,0.594,0.893,0.565,1.096,0.771,0.358,0.625,0.587,�k�k��,5.6,��
2021/11/08,04:10,0.594,0.895,0.565,1.095,0.768,0.358,0.624,0.586,�k�k��,5.9,��
2021/11/08,04:20,0.594,0.894,0.565,1.097,0.770,0.357,0.625,0.586,�k�k��,6.0,��
2021/11/08,04:30,0.593,0.894,0.565,1.096,0.770,0.358,0.623,0.587,�k�k��,5.9,��
2021/11/08,04:40,0.595,0.895,0.564,1.097,0.771,0.358,0.625,0.588,�k�k��,5.4,��
2021/11/08,04:50,0.593,0.897,0.564,1.097,0.771,0.359,0.625,0.587,�k��,5.8,��
2021/11/08,05:00,0.594,0.894,0.564,1.099,0.769,0.358,0.624,0.585,�k�k��,6.4,��
2021/11/08,05:10,0.593,0.894,0.565,1.097,0.770,0.358,0.625,0.586,�k�k��,5.5,��
2021/11/08,05:20,0.594,0.895,0.565,1.095,0.770,0.358,0.625,0.587,�k�k��,5.6,��
2021/11/08,05:30,0.595,0.897,0.565,1.097,0.772,0.359,0.623,0.587,�k�k��,5.7,��
2021/11/08,05:40,0.594,0.894,0.566,1.098,0.771,0.359,0.624,0.588,�k�k��,5.8,��
2021/11/08,05:50,0.594,0.895,0.564,1.098,0.770,0.358,0.624,0.587,�k�k��,5.9,��
2021/11/08,06:00,0.594,0.894,0.565,1.097,0.770,0.358,0.624,0.586,�k�k��,5.7,�L
2021/11/08,06:10,0.594,0.894,0.565,1.096,0.771,0.358,0.624,0.586,�k��,5.5,��
2021/11/08,06:20,0.595,0.895,0.565,1.098,0.769,0.359,0.624,0.586,�k�k��,4.6,��
2021/11/08,06:30,0.594,0.893,0.565,1.094,0.771,0.358,0.623,0.588,�k�k��,4.9,��
2021/11/08,06:40,0.594,0.893,0.566,1.098,0.771,0.359,0.624,0.587,�k��,5.5,��
2021/11/08,06:50,0.596,0.894,0.564,1.097,0.772,0.360,0.626,0.587,�k��,4.9,��
2021/11/08,07:00,0.594,0.894,0.565,1.098,0.770,0.359,0.623,0.586,�k�k��,4.8,��
2021/11/08,07:10,0.594,0.895,0.566,1.097,0.770,0.358,0.625,0.587,�k�k��,4.0,��
2021/11/08,07:20,0.593,0.893,0.566,1.096,0.772,0.359,0.624,0.588,�k�k��,3.9,�L
2021/11/08,07:30,0.595,0.895,0.567,1.098,0.771,0.359,0.623,0.587,�k�k��,4.6,��
2021/11/08,07:40,0.594,0.897,0.566,1.094,0.772,0.358,0.623,0.587,�k�k��,5.3,��
2021/11/08,07:50,0.596,0.896,0.565,1.098,0.773,0.358,0.624,0.587,�k�k��,5.5,��
2021/11/08,08:00,0.594,0.897,0.566,1.099,0.770,0.357,0.623,0.590,�k�k��,5.6,��
2021/11/08,08:10,0.594,0.895,0.566,1.096,0.774,0.357,0.624,0.587,�k�k��,5.9,��
2021/11/08,08:20,0.596,0.894,0.566,1.097,0.771,0.357,0.624,0.587,�k�k��,5.9,��
2021/11/08,08:30,0.597,0.897,0.565,1.094,0.770,0.359,0.623,0.588,�k�k��,4.7,��
2021/11/08,08:40,0.596,0.894,0.567,1.099,0.774,0.358,0.624,0.585,�k�k��,4.5,��
2021/11/08,08:50,0.596,0.895,0.567,1.099,0.771,0.359,0.623,0.586,�k�k��,5.0,��
2021/11/08,09:00,0.594,0.892,0.565,1.097,0.772,0.358,0.624,0.586,�k�k��,3.7,��
2021/11/08,09:10,0.593,0.893,0.566,1.097,0.771,0.358,0.625,0.585,�k�k��,4.2,��
2021/11/08,09:20,0.595,0.894,0.566,1.098,0.771,0.358,0.624,0.585,�k�k��,4.0,��
2021/11/08,09:30,0.596,0.894,0.566,1.096,0.771,0.359,0.624,0.586,�k�k��,3.1,�L
2021/11/08,09:40,0.594,0.890,0.566,1.097,0.770,0.358,0.624,0.586,�k�k��,3.1,�L
2021/11/08,09:50,0.595,0.892,0.566,1.097,0.771,0.358,0.625,0.584,�k�k��,2.8,��
2021/11/08,10:00,0.594,0.890,0.568,1.099,0.770,0.357,0.626,0.587,�k��,1.5,��
2021/11/08,10:10,0.592,0.890,0.567,1.102,0.771,0.358,0.625,0.585,�k�k��,1.5,��
2021/11/08,10:20,0.594,0.892,0.567,1.099,0.770,0.359,0.625,0.587,�k�k��,1.5,�L
2021/11/08,10:30,0.593,0.890,0.565,1.097,0.771,0.358,0.623,0.588,�k�k��,1.2,�L
2021/11/08,10:40,0.596,0.891,0.567,1.101,0.770,0.358,0.622,0.586,�k�k��,0.9,��
2021/11/08,10:50,0.593,0.891,0.568,1.098,0.770,0.358,0.624,0.587,�k�k��,2.0,��
2021/11/08,11:00,0.593,0.889,0.568,1.097,0.770,0.360,0.626,0.586,���k��,1.5,��
2021/11/08,11:10,0.595,0.891,0.568,1.099,0.770,0.358,0.627,0.586,�k�k��,1.5,��
2021/11/08,11:20,0.594,0.890,0.565,1.099,0.770,0.359,0.624,0.586,�k��,1.5,��
2021/11/08,11:30,0.594,0.893,0.567,1.097,0.770,0.359,0.625,0.586,�k�k��,1.7,��
2021/11/08,11:40,0.593,0.894,0.567,1.098,0.771,0.356,0.624,0.585,�k,1.5,��
2021/11/08,11:50,0.594,0.893,0.565,1.098,0.770,0.356,0.624,0.585,�k�k��,1.2,��
2021/11/08,12:00,0.595,0.894,0.564,1.099,0.770,0.358,0.626,0.585,�k��,0.9,��
2021/11/08,12:10,0.595,0.893,0.567,1.098,0.770,0.358,0.626,0.584,�k�k��,2.0,��
2021/11/08,12:20,0.594,0.892,0.565,1.099,0.770,0.358,0.626,0.584,���쓌,1.4,��
2021/11/08,12:30,0.595,0.893,0.565,1.098,0.771,0.359,0.626,0.585,��쓌,1.7,��
2021/11/08,12:40,0.594,0.892,0.566,1.098,0.774,0.358,0.625,0.586,��쓌,1.5,��
2021/11/08,12:50,0.594,0.894,0.564,1.097,0.770,0.358,0.624,0.584,���k��,0.9,��
2021/11/08,13:00,0.594,0.894,0.566,1.095,0.773,0.357,0.625,0.584,�쓌,1.9,��
2021/11/08,13:10,0.595,0.891,0.563,1.099,0.769,0.356,0.626,0.586,�쓌,2.2,��
2021/11/08,13:20,0.596,0.893,0.565,1.098,0.770,0.357,0.625,0.586,�쓌,1.7,��
2021/11/08,13:30,0.596,0.894,0.564,1.097,0.771,0.355,0.626,0.585,�쓌,2.0,��
2021/11/08,13:40,0.594,0.895,0.564,1.098,0.769,0.358,0.625,0.586,���쓌,2.3,��
2021/11/08,13:50,0.596,0.893,0.565,1.097,0.770,0.357,0.625,0.586,���쓌,3.3,��
2021/11/08,14:00,0.596,0.894,0.566,1.098,0.771,0.353,0.624,0.585,��,3.2,��
2021/11/08,14:10,0.597,0.893,0.565,1.097,0.771,0.357,0.624,0.585,��,2.2,��
2021/11/08,14:20,0.595,0.894,0.565,1.098,0.770,0.356,0.624,0.584,�쓌,2.2,��
2021/11/08,14:30,0.595,0.892,0.565,1.099,0.773,0.358,0.624,0.587,���쓌,2.3,��
2021/11/08,14:40,0.595,0.894,0.567,1.101,0.771,0.358,0.625,0.585,��,1.9,��
2021/11/08,14:50,0.595,0.895,0.565,1.100,0.772,0.357,0.624,0.584,���k��,1.7,��
2021/11/08,15:00,0.595,0.896,0.566,1.095,0.771,0.358,0.625,0.584,���k��,1.7,��
2021/11/08,15:10,0.595,0.895,0.564,1.097,0.770,0.358,0.625,0.585,���k��,1.5,��
2021/11/08,15:20,0.594,0.895,0.566,1.101,0.772,0.358,0.624,0.585,�쓌,1.2,��
2021/11/08,15:30,0.594,0.897,0.565,1.099,0.771,0.359,0.625,0.585,�쓌,1.5,��
2021/11/08,15:40,0.593,0.898,0.564,1.098,0.771,0.359,0.626,0.585,�쓌,1.7,��
2021/11/08,15:50,0.594,0.896,0.563,1.099,0.770,0.358,0.627,0.584,�쓌,2.2,��
2021/11/08,16:00,0.593,0.896,0.563,1.097,0.772,0.360,0.626,0.589,�쓌,1.9,��
2021/11/08,16:10,0.595,0.896,0.563,1.097,0.771,0.359,0.627,0.587,��쓌,1.5,��
2021/11/08,16:20,0.595,0.899,0.566,1.097,0.771,0.359,0.625,0.588,��쓌,2.6,��
2021/11/08,16:30,0.595,0.895,0.566,1.098,0.770,0.360,0.629,0.588,�쓌,3.6,��
2021/11/08,16:40,0.595,0.900,0.567,1.098,0.770,0.359,0.627,0.588,��쓌,3.4,��
2021/11/08,16:50,0.596,0.899,0.566,1.098,0.771,0.359,0.628,0.588,��쓌,3.8,��
2021/11/08,17:00,0.597,0.900,0.566,1.099,0.773,0.360,0.627,0.590,��쓌,3.6,��
2021/11/08,17:10,0.597,0.900,0.567,1.099,0.771,0.360,0.628,0.588,��쓌,3.0,��
2021/11/08,17:20,0.595,0.899,0.566,1.098,0.773,0.359,0.626,0.588,��,2.8,��
2021/11/08,17:30,0.597,0.899,0.568,1.099,0.773,0.361,0.626,0.588,��,3.2,��
2021/11/08,17:40,0.596,0.898,0.566,1.099,0.775,0.359,0.626,0.586,��,2.3,��
2021/11/08,17:50,0.597,0.899,0.566,1.096,0.772,0.359,0.627,0.586,��,2.3,��
2021/11/08,18:00,0.598,0.898,0.567,1.100,0.771,0.360,0.627,0.586,��쐼,1.5,��
2021/11/08,18:10,0.598,0.898,0.566,1.099,0.773,0.357,0.626,0.588,��쐼,1.2,�L
2021/11/08,18:20,0.596,0.898,0.568,1.099,0.773,0.360,0.627,0.588,��쐼,1.7,�L
2021/11/08,18:30,0.596,0.899,0.568,1.099,0.772,0.361,0.626,0.587,��쐼,1.9,��
2021/11/08,18:40,0.598,0.897,0.568,1.100,0.772,0.360,0.626,0.588,��쐼,2.3,�L
2021/11/08,18:50,0.595,0.897,0.566,1.099,0.771,0.359,0.624,0.587,��,2.6,�L
2021/11/08,19:00,0.597,0.899,0.567,1.098,0.772,0.360,0.626,0.586,�쓌,1.9,�L
2021/11/08,19:10,0.596,0.896,0.565,1.099,0.772,0.358,0.626,0.587,���쓌,1.2,�L
2021/11/08,19:20,0.594,0.897,0.566,1.097,0.771,0.359,0.624,0.589,�쓌,2.0,�L
2021/11/08,19:30,0.594,0.895,0.567,1.099,0.772,0.359,0.623,0.585,�쓌,3.5,�L
2021/11/08,19:40,0.595,0.895,0.566,1.094,0.772,0.359,0.625,0.587,���쓌,3.2,�L
2021/11/08,19:50,0.596,0.894,0.564,1.096,0.772,0.359,0.624,0.586,���쓌,3.6,��
2021/11/08,20:00,0.594,0.895,0.565,1.096,0.770,0.359,0.623,0.588,���쓌,3.6,��
2021/11/08,20:10,0.595,0.894,0.565,1.098,0.771,0.358,0.625,0.587,���쓌,3.2,��
2021/11/08,20:20,0.597,0.896,0.562,1.096,0.770,0.360,0.624,0.588,���쓌,2.5,��
2021/11/08,20:30,0.595,0.892,0.563,1.097,0.771,0.360,0.622,0.587,�쓌,2.2,��
2021/11/08,20:40,0.595,0.893,0.564,1.095,0.770,0.360,0.623,0.586,�쓌,2.6,��
2021/11/08,20:50,0.596,0.891,0.564,1.097,0.770,0.359,0.624,0.587,�쓌,3.0,��
2021/11/08,21:00,0.595,0.894,0.564,1.097,0.771,0.359,0.624,0.586,�쓌,2.9,�L
2021/11/08,21:10,0.596,0.893,0.565,1.096,0.770,0.359,0.624,0.588,��쓌,4.4,�L
2021/11/08,21:20,0.595,0.892,0.564,1.097,0.770,0.359,0.624,0.587,��쓌,7.9,�L
2021/11/08,21:30,0.597,0.893,0.562,1.094,0.767,0.359,0.622,0.588,�쓌,8.2,�L
2021/11/08,21:40,0.595,0.893,0.564,1.094,0.771,0.360,0.622,0.588,�쓌,7.6,�L
2021/11/08,21:50,0.594,0.892,0.564,1.094,0.769,0.359,0.624,0.584,�쓌,8.2,�L
2021/11/08,22:00,0.593,0.891,0.564,1.095,0.769,0.358,0.624,0.587,�쓌,7.4,��
2021/11/08,22:10,0.593,0.894,0.563,1.095,0.767,0.357,0.623,0.586,��,7.1,�L
2021/11/08,22:20,0.594,0.893,0.565,1.095,0.765,0.358,0.623,0.587,��쐼,6.1,��
2021/11/08,22:30,0.592,0.893,0.564,1.097,0.764,0.359,0.623,0.587,��쐼,7.4,��
2021/11/08,22:40,0.593,0.893,0.563,1.097,0.767,0.357,0.622,0.587,��쐼,6.9,��
2021/11/08,22:50,0.593,0.892,0.564,1.094,0.767,0.358,0.624,0.586,��쐼,7.3,��
2021/11/08,23:00,0.593,0.892,0.563,1.097,0.768,0.359,0.624,0.588,��,7.0,��
2021/11/08,23:10,0.593,0.894,0.564,1.096,0.766,0.358,0.623,0.587,��,6.0,��
2021/11/08,23:20,0.593,0.893,0.564,1.096,0.767,0.358,0.624,0.587,��,6.1,��
2021/11/08,23:30,0.594,0.894,0.565,1.095,0.767,0.358,0.624,0.587,��,5.8,��
2021/11/08,23:40,0.592,0.892,0.565,1.094,0.767,0.358,0.625,0.587,��,4.9,��
2021/11/08,23:50,0.593,0.893,0.564,1.095,0.769,0.358,0.625,0.587,��,3.7,��
